Location: Erdweis
(48.5167°N, 15.3500°E)
Time: 11:27:45
(UTC+00:00)

USA 238 DEB - Pass Details

Date: 18 September 2020
Orbit: 1006 x 1206 km, 63.4° (Epoch: 15 October)

Event Time Altitude Azimuth Distance (km) Brightness Sun altitude
Rises 17:41:53 0° 316° (NW) 3,906 7.6 -7.0°
Reaches altitude 10° 17:44:38 10° 322° (NW) 2,977 6.8 -7.5°
Maximum altitude 17:51:28 47° 36° (NE) 1,492 4.3 -8.6°
Enters shadow 17:58:12 12° 107° (ESE) 2,977 5.3 -9.7°
